KT2UU-13 Weather Reports


time (UTC)temp
C
wind
direction
speed
KPH
gust
KPH
rain 1hr
cm
rain 24hr
cm
rain mn
cm
humidity
%
barometer
mb
20260902005120 27 214 0.0 0.0 0.00 0.00 0.00 87 1018.6
20260902004619 27 214 0.0 0.0 0.00 0.00 0.00 86 1018.7
20260902004109 27 214 0.0 0.0 0.00 0.00 0.00 86 1018.7
20260902003604 27 213 0.0 0.0 0.00 0.00 0.00 85 1018.7
20260902003100 27 213 0.0 0.0 0.00 0.00 0.00 84 1018.7
20260902002555 27 213 0.0 0.0 0.00 0.00 0.00 83 1018.7
20260902002050 28 213 0.0 0.0 0.00 0.00 0.00 82 1018.7
20260902001545 28 213 0.0 0.0 0.00 0.00 0.00 81 1018.8
20260902001039 28 208 0.0 0.0 0.00 0.00 0.00 81 1018.8
20260902000534 29 213 0.0 0.0 0.00 0.00 0.00 79 1018.9
20260902000029 29 213 0.0 0.0 0.00 0.00 0.00 77 1018.8
20260901235523 30 213 0.0 0.0 0.00 0.00 0.00 75 1018.8
20260901235019 30 213 0.0 0.0 0.00 0.00 0.00 74 1019.0
20260901234518 30 213 0.0 0.0 0.00 0.00 0.00 73 1018.9
20260901234014 31 213 0.0 0.0 0.00 0.00 0.00 72 1019.1
20260901233508 32 214 0.0 0.0 0.00 0.00 0.00 68 1018.8
20260901233005 33 214 0.0 0.0 0.00 0.00 0.00 64 1019.2
20260901232500 33 214 0.0 0.0 0.00 0.00 0.00 61 1019.1
20260901231954 34 215 0.0 0.0 0.00 0.00 0.00 57 1019.0
20260901231451 34 215 0.0 0.0 0.00 0.00 0.00 57 1019.2
20260901230948 35 215 0.0 0.0 0.00 0.00 0.00 54 1019.1
20260901230446 35 215 0.0 0.0 0.00 0.00 0.00 53 1019.1
20260901225942 35 215 0.0 0.0 0.00 0.00 0.00 53 1019.0
20260901225441 34 215 0.0 0.0 0.00 0.00 0.00 53 1019.1
20260901224937 34 215 0.0 3.2 0.00 0.00 0.00 51 1019.3
20260901224433 34 215 3.2 3.2 0.00 0.00 0.00 51 1018.9
20260901223929 35 215 1.6 3.2 0.00 0.00 0.00 51 1018.9
20260901223424 35 215 0.0 3.2 0.00 0.00 0.00 50 1019.0
20260901222920 35 215 0.0 0.0 0.00 0.00 0.00 50 1018.9
20260901222416 35 215 0.0 0.0 0.00 0.00 0.00 50 1019.1
20260901221912 35 215 0.0 0.0 0.00 0.00 0.00 49 1018.7
20260901221407 35 214 1.6 4.8 0.00 0.00 0.00 51 1019.0
20260901220902 36 215 0.0 1.6 0.00 0.00 0.00 48 1018.8
20260901220401 35 215 0.0 0.0 0.00 0.00 0.00 51 1019.0
20260901215900 35 215 1.6 4.8 0.00 0.00 0.00 50 1019.0
20260901215358 35 215 1.6 3.2 0.00 0.00 0.00 50 1019.0
20260901214852 35 213 3.2 6.4 0.00 0.00 0.00 48 1019.0
20260901214350 35 215 1.6 6.4 0.00 0.00 0.00 50 1019.1
20260901213845 34 215 1.6 6.4 0.00 0.00 0.00 50 1019.0
20260901213345 35 215 1.6 3.2 0.00 0.00 0.00 48 1018.9
20260901212839 35 215 3.2 6.4 0.00 0.00 0.00 49 1019.0
20260901212330 35 215 0.0 1.6 0.00 0.00 0.00 52 1019.0
20260901211826 35 215 0.0 0.0 0.00 0.00 0.00 49 1018.8
20260901211322 35 215 1.6 1.6 0.00 0.00 0.00 51 1018.7
20260901210817 35 215 0.0 1.6 0.00 0.00 0.00 49 1018.9
20260901210313 35 215 3.2 6.4 0.00 0.00 0.00 50 1019.0
20260901205809 35 215 1.6 3.2 0.00 0.00 0.00 48 1018.9
20260901205309 35 199 1.6 1.6 0.00 0.00 0.00 49 1019.0
20260901204803 35 219 3.2 6.4 0.00 0.00 0.00 49 1019.1
20260901204259 35 215 1.6 6.4 0.00 0.00 0.00 50 1019.1
20260901203754 35 216 3.2 6.4 0.00 0.00 0.00 49 1019.2
20260901203253 34 215 1.6 6.4 0.00 0.00 0.00 48 1019.3
20260901202747 34 215 1.6 3.2 0.00 0.00 0.00 51 1019.5
20260901202243 35 215 1.6 6.4 0.00 0.00 0.00 50 1019.6
20260901201739 33 215 3.2 6.4 0.00 0.00 0.00 52 1019.3
20260901201238 34 213 3.2 9.7 0.00 0.00 0.00 52 1019.6
20260901200738 34 215 1.6 4.8 0.00 0.00 0.00 50 1019.5
20260901200234 34 215 1.6 4.8 0.00 0.00 0.00 51 1019.7
20260901195732 33 208 0.0 1.6 0.00 0.00 0.00 52 1019.6
20260901195225 34 213 0.0 1.6 0.00 0.00 0.00 51 1019.9
20260901194721 34 213 0.0 3.2 0.00 0.00 0.00 53 1019.6
20260901194216 33 216 3.2 9.7 0.00 0.00 0.00 51 1019.5
20260901193712 33 208 0.0 6.4 0.00 0.00 0.00 52 1019.8
20260901193207 34 213 1.6 4.8 0.00 0.00 0.00 54 1019.9
20260901192706 34 213 6.4 9.7 0.00 0.00 0.00 52 1019.8
20260901192201 34 215 4.8 9.7 0.00 0.00 0.00 51 1019.7
20260901191657 35 213 3.2 4.8 0.00 0.00 0.00 54 1019.8
20260901191153 35 213 0.0 3.2 0.00 0.00 0.00 52 1020.1
20260901190649 34 212 3.2 3.2 0.00 0.00 0.00 52 1020.1
20260901190148 33 212 0.0 1.6 0.00 0.00 0.00 53 1020.2
20260901185647 33 213 0.0 0.0 0.00 0.00 0.00 52 1020.4
20260901185145 33 213 1.6 9.7 0.00 0.00 0.00 55 1020.4
20260901184641 33 212 0.0 1.6 0.00 0.00 0.00 53 1020.3
20260901184136 33 213 3.2 9.7 0.00 0.00 0.00 56 1020.3
20260901183632 33 212 0.0 3.2 0.00 0.00 0.00 57 1020.3
20260901183127 32 212 0.0 3.2 0.00 0.00 0.00 60 1020.4
20260901182623 32 212 0.0 3.2 0.00 0.00 0.00 62 1020.4
20260901182122 32 212 0.0 3.2 0.00 0.00 0.00 59 1020.3
20260901181622 32 212 0.0 3.2 0.00 0.00 0.00 58 1020.5
20260901181121 32 212 3.2 4.8 0.00 0.00 0.00 59 1020.4
20260901180616 32 212 0.0 9.7 0.00 0.00 0.00 59 1020.5
20260901180110 32 212 3.2 11.3 0.00 0.00 0.00 62 1020.6
20260901175609 32 212 4.8 11.3 0.00 0.00 0.00 59 1020.8
20260901175104 32 212 4.8 11.3 0.00 0.00 0.00 61 1020.7
20260901174600 32 212 1.6 4.8 0.00 0.00 0.00 61 1020.9
20260901174055 32 212 4.8 4.8 0.00 0.00 0.00 59 1020.6
20260901173549 32 212 4.8 4.8 0.00 0.00 0.00 59 1020.8
20260901173045 32 212 1.6 3.2 0.00 0.00 0.00 60 1021.0
20260901172541 32 212 1.6 6.4 0.00 0.00 0.00 61 1021.1
20260901172038 32 212 3.2 6.4 0.00 0.00 0.00 61 1021.2
20260901171533 32 212 3.2 4.8 0.00 0.00 0.00 62 1021.1
20260901171032 32 212 1.6 11.3 0.00 0.00 0.00 60 1021.3
20260901170531 31 212 3.2 6.4 0.00 0.00 0.00 62 1021.2
20260901170026 31 211 3.2 4.8 0.00 0.00 0.00 60 1021.3
20260901165521 31 211 1.6 4.8 0.00 0.00 0.00 61 1021.5
20260901165016 32 212 4.8 4.8 0.00 0.00 0.00 63 1021.5
20260901164512 31 211 0.0 0.0 0.00 0.00 0.00 65 1021.6
20260901164006 31 211 0.0 3.2 0.00 0.00 0.00 63 1021.6
20260901163502 31 211 0.0 3.2 0.00 0.00 0.00 64 1021.7
20260901163000 31 212 1.6 3.2 0.00 0.00 0.00 64 1021.7
20260901162456 31 211 0.0 3.2 0.00 0.00 0.00 68 1021.8
20260901161955 31 211 0.0 0.0 0.00 0.00 0.00 67 1021.7
20260901161455 31 211 0.0 3.2 0.00 0.00 0.00 67 1021.9
20260901160949 31 211 0.0 0.0 0.00 0.00 0.00 68 1021.8
20260901160446 31 212 1.6 3.2 0.00 0.00 0.00 66 1021.8
20260901155944 31 211 1.6 4.8 0.00 0.00 0.00 68 1021.9
20260901155444 30 211 0.0 0.0 0.00 0.00 0.00 68 1021.9
20260901154941 30 211 1.6 4.8 0.00 0.00 0.00 69 1022.3
20260901154440 30 211 0.0 0.0 0.00 0.00 0.00 69 1022.0
20260901153935 30 211 0.0 1.6 0.00 0.00 0.00 69 1022.3
20260901153430 30 211 1.6 3.2 0.00 0.00 0.00 71 1022.2
20260901152929 30 211 0.0 0.0 0.00 0.00 0.00 72 1022.2
20260901152429 29 212 3.2 3.2 0.00 0.00 0.00 73 1022.2
20260901151929 29 211 0.0 0.0 0.00 0.00 0.00 73 1022.3
20260901151424 29 211 0.0 0.0 0.00 0.00 0.00 74 1022.2
20260901150923 29 211 1.6 3.2 0.00 0.00 0.00 75 1022.2
20260901150421 28 211 0.0 3.2 0.00 0.00 0.00 77 1022.3
20260901145918 29 211 3.2 4.8 0.00 0.00 0.00 77 1022.4
20260901145413 28 211 0.0 0.0 0.00 0.00 0.00 80 1022.4
20260901144908 28 211 0.0 1.6 0.00 0.00 0.00 81 1022.3
20260901144403 28 211 0.0 1.6 0.00 0.00 0.00 80 1022.3
20260901143859 28 211 0.0 0.0 0.00 0.00 0.00 79 1022.2
20260901143355 27 212 0.0 1.6 0.00 0.00 0.00 81 1022.2
20260901142851 27 212 0.0 1.6 0.00 0.00 0.00 82 1022.3
20260901142350 27 212 3.2 3.2 0.00 0.00 0.00 81 1022.2
20260901141845 27 212 0.0 1.6 0.00 0.00 0.00 82 1022.0
20260901141341 27 212 3.2 4.8 0.00 0.00 0.00 82 1022.2
20260901140839 27 212 0.0 1.6 0.00 0.00 0.00 82 1022.2
20260901140338 27 212 0.0 0.0 0.00 0.00 0.00 83 1021.9
20260901135833 27 212 0.0 0.0 0.00 0.00 0.00 84 1022.3
20260901135328 27 212 1.6 3.2 0.00 0.00 0.00 83 1022.2
20260901134824 27 212 0.0 0.0 0.00 0.00 0.00 84 1022.4
20260901134319 26 212 0.0 0.0 0.00 0.00 0.00 85 1022.2
20260901133813 26 212 0.0 0.0 0.00 0.00 0.00 86 1022.1
20260901133312 26 212 0.0 0.0 0.00 0.00 0.00 87 1022.3
20260901132811 26 212 0.0 0.0 0.00 0.00 0.00 86 1022.3
20260901132307 26 212 0.0 0.0 0.00 0.00 0.00 87 1022.2
20260901131800 25 212 0.0 0.0 0.00 0.00 0.00 87 1022.3
20260901131300 25 212 0.0 0.0 0.00 0.00 0.00 88 1022.3
20260901130755 25 212 0.0 0.0 0.00 0.00 0.00 88 1022.3
20260901130255 25 206 0.0 0.0 0.00 0.00 0.00 89 1022.3
20260901125753 25 212 0.0 0.0 0.00 0.00 0.00 87 1022.2
20260901125247 26 212 0.0 0.0 0.00 0.00 0.00 85 1022.4
20260901124742 26 212 0.0 0.0 0.00 0.00 0.00 87 1022.4
20260901124237 26 212 0.0 0.0 0.00 0.00 0.00 86 1022.3
20260901123737 25 212 0.0 0.0 0.00 0.00 0.00 87 1022.3
20260901123231 25 212 0.0 0.0 0.00 0.00 0.00 90 1022.3
20260901122730 24 212 0.0 0.0 0.00 0.00 0.00 92 1022.3
20260901122225 23 212 0.0 0.0 0.00 0.00 0.00 94 1022.3
20260901121719 22 212 0.0 0.0 0.00 0.00 0.00 99 1022.1
20260901121215 22 212 0.0 0.0 0.00 0.00 0.00 99 1021.9
20260901120714 22 211 0.0 0.0 0.00 0.00 0.00 99 1021.9
20260901120209 22 211 0.0 0.0 0.00 0.00 0.00 99 1021.9
20260901115704 21 211 0.0 0.0 0.00 0.00 0.00 99 1022.0
20260901115201 21 211 0.0 0.0 0.00 0.00 0.00 99 1021.8
20260901114657 21 211 0.0 0.0 0.00 0.00 0.00 99 1021.7
20260901114156 21 211 0.0 0.0 0.00 0.00 0.00 99 1021.6
20260901113655 21 211 0.0 0.0 0.00 0.00 0.00 99 1021.7
20260901113151 21 211 0.0 0.0 0.00 0.00 0.00 99 1021.7
20260901112650 21 211 0.0 0.0 0.00 0.00 0.00 99 1021.3
20260901112145 21 211 0.0 0.0 0.00 0.00 0.00 99 1021.5
20260901111644 21 211 0.0 0.0 0.00 0.00 0.00 99 1021.3
20260901111144 21 211 0.0 0.0 0.00 0.00 0.00 99 1021.3
20260901110639 21 211 0.0 0.0 0.00 0.00 0.00 99 1021.1
20260901110134 21 211 0.0 0.0 0.00 0.00 0.00 99 1021.0
20260901105630 21 211 0.0 0.0 0.00 0.00 0.00 99 1021.0
20260901105130 21 211 0.0 0.0 0.00 0.00 0.00 99 1021.0
20260901104626 21 211 0.0 0.0 0.00 0.00 0.00 99 1021.0
20260901104121 21 211 0.0 0.0 0.00 0.00 0.00 99 1020.9
20260901103620 21 211 0.0 0.0 0.00 0.00 0.00 99 1020.9
20260901103116 21 211 0.0 0.0 0.00 0.00 0.00 99 1020.8
20260901102610 21 211 0.0 0.0 0.00 0.00 0.00 99 1020.9
20260901102105 21 211 0.0 0.0 0.00 0.00 0.00 99 1020.8
20260901101601 21 211 0.0 0.0 0.00 0.00 0.00 99 1020.9
20260901101100 21 211 0.0 0.0 0.00 0.00 0.00 99 1020.7
20260901100559 21 211 0.0 0.0 0.00 0.00 0.00 99 1020.9
20260901100054 21 211 0.0 0.0 0.00 0.00 0.00 99 1020.9
20260901095552 21 211 0.0 0.0 0.00 0.00 0.00 99 1020.9
20260901095050 21 211 0.0 0.0 0.00 0.00 0.00 99 1020.9
20260901094546 21 211 0.0 0.0 0.00 0.00 0.00 99 1020.9
20260901094045 21 211 0.0 0.0 0.00 0.00 0.00 99 1020.9
20260901093540 21 211 0.0 0.0 0.00 0.00 0.00 99 1020.7
20260901093034 21 211 0.0 0.0 0.00 0.00 0.00 99 1020.7
20260901092530 21 211 0.0 0.0 0.00 0.00 0.00 99 1020.8
20260901092026 21 211 0.0 0.0 0.00 0.00 0.00 99 1020.6
20260901091521 21 211 0.0 0.0 0.00 0.00 0.00 99 1020.5
20260901091016 21 211 0.0 0.0 0.00 0.00 0.00 99 1020.6
20260901090515 21 211 0.0 0.0 0.00 0.00 0.00 99 1020.4
20260901090011 21 211 0.0 0.0 0.00 0.00 0.00 99 1020.4
20260901085506 21 211 0.0 0.0 0.00 0.00 0.00 99 1020.3
20260901084957 21 211 0.0 0.0 0.00 0.00 0.00 99 1020.3
20260901084453 21 211 0.0 0.0 0.00 0.00 0.00 99 1020.4
20260901083948 21 211 0.0 0.0 0.00 0.00 0.00 99 1020.6
20260901083443 21 211 0.0 0.0 0.00 0.00 0.00 99 1020.4
20260901082935 21 211 0.0 0.0 0.00 0.00 0.00 99 1020.4
20260901082431 21 211 0.0 0.0 0.00 0.00 0.00 99 1020.3
20260901081925 21 211 0.0 0.0 0.00 0.00 0.00 99 1020.4
20260901081420 21 211 0.0 0.0 0.00 0.00 0.00 99 1020.3
20260901080915 21 211 0.0 0.0 0.00 0.00 0.00 99 1020.3
20260901080409 21 211 0.0 0.0 0.00 0.00 0.00 99 1020.3
20260901075903 21 211 0.0 0.0 0.00 0.00 0.00 99 1020.3
20260901075359 21 211 0.0 0.0 0.00 0.00 0.00 99 1020.3
20260901074854 21 211 0.0 0.0 0.00 0.00 0.00 99 1020.4
20260901074353 21 211 0.0 0.0 0.00 0.00 0.00 99 1020.3
20260901073849 21 211 0.0 0.0 0.00 0.00 0.00 99 1020.3
20260901073345 21 211 0.0 0.0 0.00 0.00 0.00 99 1020.4
20260901072841 21 211 0.0 0.0 0.00 0.00 0.00 99 1020.3
20260901072340 21 211 0.0 0.0 0.00 0.00 0.00 99 1020.4
20260901071836 21 211 0.0 0.0 0.00 0.00 0.00 99 1020.3
20260901071334 22 211 0.0 0.0 0.00 0.00 0.00 99 1020.5
20260901070833 22 211 0.0 0.0 0.00 0.00 0.00 99 1020.5
20260901070329 21 211 0.0 0.0 0.00 0.00 0.00 99 1020.2
20260901065828 21 211 0.0 0.0 0.00 0.00 0.00 99 1020.6
20260901065323 22 211 0.0 0.0 0.00 0.00 0.00 99 1020.6
20260901064819 22 211 0.0 0.0 0.00 0.00 0.00 99 1020.4
20260901064315 22 211 0.0 0.0 0.00 0.00 0.00 99 1020.5
20260901063812 22 211 0.0 0.0 0.00 0.00 0.00 99 1020.5
20260901063308 22 211 0.0 0.0 0.00 0.00 0.00 98 1020.3
20260901062804 22 211 0.0 0.0 0.00 0.00 0.00 98 1020.6
20260901062300 22 211 0.0 0.0 0.00 0.00 0.00 98 1020.6
20260901061755 22 211 0.0 0.0 0.00 0.00 0.00 98 1020.5
20260901061255 22 211 0.0 0.0 0.00 0.00 0.00 98 1020.7
20260901060750 22 211 0.0 0.0 0.00 0.00 0.00 98 1020.6
20260901060246 22 204 0.0 0.0 0.00 0.00 0.00 98 1020.5
20260901055741 22 211 0.0 0.0 0.00 0.00 0.00 98 1020.6
20260901055237 22 211 0.0 0.0 0.00 0.00 0.00 98 1020.7
20260901054734 22 211 0.0 0.0 0.00 0.00 0.00 98 1020.7
20260901054230 22 211 0.0 0.0 0.00 0.00 0.00 98 1020.6
20260901053726 22 211 0.0 0.0 0.00 0.00 0.00 98 1020.5
20260901053221 22 211 0.0 0.0 0.00 0.00 0.00 98 1020.6
20260901052716 22 211 0.0 0.0 0.00 0.00 0.00 98 1020.4
20260901052212 22 211 0.0 0.0 0.00 0.00 0.00 98 1020.5
20260901051711 22 211 0.0 0.0 0.00 0.00 0.00 98 1020.6
20260901051211 22 211 0.0 0.0 0.00 0.00 0.00 98 1020.5
20260901050706 22 211 0.0 0.0 0.00 0.00 0.00 98 1020.5
20260901050201 22 211 0.0 0.0 0.00 0.00 0.00 98 1020.4
20260901045656 22 211 0.0 0.0 0.00 0.00 0.00 98 1020.6
20260901045151 22 211 0.0 0.0 0.00 0.00 0.00 98 1020.4
20260901044647 22 211 0.0 0.0 0.00 0.00 0.00 97 1020.7
20260901044143 22 211 0.0 0.0 0.00 0.00 0.00 97 1020.5
20260901043638 22 211 0.0 0.0 0.00 0.00 0.00 97 1020.6
20260901043134 22 211 0.0 0.0 0.00 0.00 0.00 96 1020.5
20260901042633 23 211 0.0 0.0 0.00 0.00 0.00 96 1020.6
20260901042128 23 211 0.0 0.0 0.00 0.00 0.00 96 1020.6
20260901041624 23 211 0.0 0.0 0.00 0.00 0.00 96 1020.4
20260901041119 23 211 0.0 0.0 0.00 0.00 0.00 96 1020.5
20260901040618 23 211 0.0 0.0 0.00 0.00 0.00 96 1020.5
20260901040112 23 211 0.0 0.0 0.00 0.00 0.00 96 1020.5
20260901035611 23 204 0.0 0.0 0.00 0.00 0.00 96 1020.5
20260901035110 23 211 0.0 0.0 0.00 0.00 0.00 96 1020.4
20260901034609 23 211 0.0 0.0 0.00 0.00 0.00 96 1020.5
20260901034104 23 211 0.0 0.0 0.00 0.00 0.00 95 1020.4
20260901033603 23 211 0.0 0.0 0.00 0.00 0.00 95 1020.4
20260901033058 23 211 0.0 0.0 0.00 0.00 0.00 95 1020.2
20260901032556 23 211 0.0 0.0 0.00 0.00 0.00 95 1020.5
20260901032051 23 211 0.0 0.0 0.00 0.00 0.00 95 1020.4
20260901031547 23 211 0.0 0.0 0.00 0.00 0.00 94 1020.4
20260901031042 23 211 0.0 0.0 0.00 0.00 0.00 94 1020.3
20260901030536 23 211 0.0 0.0 0.00 0.00 0.00 94 1020.1
20260901030036 23 211 0.0 0.0 0.00 0.00 0.00 93 1020.2
20260901025530 23 211 0.0 0.0 0.00 0.00 0.00 93 1020.5
20260901025025 23 211 0.0 0.0 0.00 0.00 0.00 93 1020.5
20260901024520 24 211 0.0 0.0 0.00 0.00 0.00 93 1020.2
20260901024019 24 211 0.0 0.0 0.00 0.00 0.00 93 1020.4
20260901023513 24 211 0.0 0.0 0.00 0.00 0.00 92 1020.3
20260901023008 24 211 0.0 0.0 0.00 0.00 0.00 92 1020.1
20260901022503 24 211 0.0 0.0 0.00 0.00 0.00 91 1020.2
20260901021958 24 211 0.0 0.0 0.00 0.00 0.00 91 1020.2
20260901021454 24 211 0.0 0.0 0.00 0.00 0.00 91 1020.2
20260901020949 24 211 0.0 0.0 0.00 0.00 0.00 90 1020.3
20260901020445 25 211 0.0 0.0 0.00 0.00 0.00 90 1020.1
20260901015943 25 211 0.0 0.0 0.00 0.00 0.00 89 1020.4
20260901015440 24 211 0.0 0.0 0.00 0.00 0.00 88 1020.0
20260901014939 25 211 0.0 0.0 0.00 0.00 0.00 90 1020.0
20260901014436 25 211 0.0 0.0 0.00 0.00 0.00 90 1019.9
20260901013931 25 211 0.0 0.0 0.00 0.00 0.00 89 1019.9
20260901013427 25 211 0.0 0.0 0.00 0.00 0.00 90 1019.9
20260901012922 25 211 0.0 0.0 0.00 0.00 0.00 89 1020.0
20260901012416 25 211 0.0 0.0 0.00 0.00 0.00 88 1019.8
20260901011912 25 211 0.0 0.0 0.00 0.00 0.00 88 1019.8
20260901011408 25 211 0.0 0.0 0.00 0.00 0.00 87 1019.6
20260901010906 25 211 0.0 0.0 0.00 0.00 0.00 86 1019.5
20260901010401 25 211 0.0 0.0 0.00 0.00 0.00 86 1019.4
20260901005859 26 211 0.0 0.0 0.00 0.00 0.00 86 1019.6